Regional Weather Roundup
Issued by NWS

Home | Current Version | Previous Version | Text Only | Print | Product List | Glossary On
Versions: 1 2 3 4 5 6 7 8 9 10 11 12 13 14 15 16 17 18 19 20 21 22 23 24 25 26 27 28 29 30 31 32 33 34 35 36 37 38 39 40 41 42 43 44 45 46 47 48 49 50
178
ASUS46 KPQR 261410
RWROR

OREGON REGIONAL WEATHER ROUNDUP
NATIONAL WEATHER SERVICE PORTLAND OR
700 AM PDT TUE JUL 26 2016

NOTE: "FAIR" INDICATES FEW OR NO CLOUDS BELOW 12,000 FEET WITH
NO SIGNIFICANT WEATHER AND/OR OBSTRUCTIONS TO VISIBILITY.

ORZ001>013-261500-
NORTHWEST OREGON


CITY           SKY/WX    TMP DP  RH WIND       PRES   REMARKS
ASTORIA        CLOUDY    62  54  74 N13       30.18R
NEWPORT        MOCLDY    57  55  94 N7        30.20R
PORTLAND       CLOUDY    61  54  77 VRB6      30.16R
VANCOUVER WA   PTSUNNY   61  53  75 VRB3      30.16R
SCAPPOOSE      CLOUDY    61  54  77 NW5       30.15R
HILLSBORO      SUNNY     58  53  84 CALM      30.16R
AURORA         CLOUDY    60  55  83 N3        30.17R
MCMINNVILLE    SUNNY     58  55  90 W3        30.17R
SALEM          SUNNY     61  55  81 N8        30.15R
CORVALLIS        N/A     59  54  82 NW7       30.16R
EUGENE         PTCLDY    57  54  89 CALM      30.15R
$$

ORZ021-028-261500-
SOUTHWEST OREGON


CITY           SKY/WX    TMP DP  RH WIND       PRES   REMARKS
NORTH BEND     PTCLDY    57  55  94 N8        30.17R
BROOKINGS      FOG       52  52 100 CALM      30.03R VSB 1/4
ROSEBURG       CLOUDY    61  54  77 CALM      30.13R
SEXTON SUMMIT  CLEAR     62  52  69 NE6       30.18R
MEDFORD        CLEAR     64  54  69 CALM      30.10R
$$

ORZ014>016-041-261500-
COLUMBIA GORGE


CITY           SKY/WX    TMP DP  RH WIND       PRES   REMARKS
TROUTDALE      CLOUDY    63  55  75 VRB3      30.15R
THE DALLES     SUNNY     69  56  62 NW13G21   30.01R
$$

ORZ029>031-041-044-049-050-061>064-502-503-505>511-261500-
EASTERN OREGON


CITY           SKY/WX    TMP DP  RH WIND       PRES   REMARKS
REDMOND        SUNNY     60  50  69 S7        30.15R
BEND           SUNNY     59  52  77 SW7       30.16R
PRINEVILLE     SUNNY     59  54  82 CALM      30.16R
KLAMATH FALLS  MOSUNNY   54  49  83 CALM      30.17R
LAKEVIEW       SUNNY    N/A N/A N/A CALM      30.22R
HERMISTON      SUNNY     75  55  49 W7        29.98R
PENDLETON      SUNNY     69  51  52 SE6       30.03R
JOHN DAY       SUNNY     68  47  46 CALM      30.15R
MEACHAM        SUNNY     52  43  71 CALM      30.14R
LA GRANDE      SUNNY     72  46  40 NW15      30.07R
BAKER CITY     SUNNY     63  47  55 S5        30.09R
BURNS          SUNNY     61  40  45 NE5       30.14R
ROME             N/A     70  31  23 S6        30.10R
ONTARIO        MOSUNNY   77  46  33 W6        29.98R
$$




USA.gov is the U.S. government's official web portal to all federal, state and local government web resources and services.